Track COSMOS 2477 (GLONASS) now! COSMOS 2477 (GLONASS) is classified as:
1 37868U 11064B 23146.20118949 .00000053 00000-0 00000-0 0 9992 2 37868 64.7467 110.8376 0020674 242.6877 300.7078 2.13101718 89937